Location: Unspecified
(0.0000°N, 0.0000°E)
Time: 07:47:47
(UTC+00:00)

Vanguard 1 - Pass Details

Date: 01 October 2022
Orbit: 650 x 3831 km, 34.2° (Epoch: 26 November)

Event Time Altitude Azimuth Distance (km) Brightness Sun altitude
Exits shadow 03:06:58 10° 195° (SSW) 4,192 13.2 -40.6°
Maximum altitude 03:09:08 11° 183° (S) 4,394 13.3 -40.1°
Drops below altitude 10° 03:11:52 10° 171° (S) 4,769 13.6 -39.4°
Sets 03:22:43 0° 139° (SE) 6,849 14.9 -36.7°
